Flag for Switzerland Weather past 2 weeks in Allschwil, Basel-Land, Switzerland

Now
55 °F

Overcast.


Feels Like: 55 °F
Forecast: 49 / 65 °F
Wind: 2 mph from North

Location: Bale-Mulhouse

Current Time: Aug 23, 2014 at 7:46:04 AM

Latest Report: Aug 23, 2014 at 7:00 AM


Visibility: 19 mi

Pressure: 30.02 "Hg

Humidity: 90%

Dew point: 52 °F

Location of AllschwilLocation

Historic Weather in Allschwil — Graph

°F

Allschwil temperature yesterday

Maximum temperature yesterday: 71 °F (at 4:00 PM)
Minimum temperature yesterday: 48 °F (at 7:00 AM)
Average temperature yesterday: 60 °F

Past Weeks' High & Low Weather Summary

 TemperatureHumidityPressure
High83 °F (Aug 8, 6:00 PM)98% (Aug 17, 6:00 AM)30.20 "Hg (Aug 17, 6:00 AM)
Low47 °F (Aug 21, 7:00 AM)41% (Aug 22, 2:00 PM)29.67 "Hg (Aug 13, 9:00 AM)
Average63 °F77%29.97 "Hg
* Reported Aug 8 6:00 AM — Aug 23 6:00 AM, Allschwil, Weather by CustomWeather, © 2014

Note: Actual official high and low records may vary slightly from our data, if they occured in-between our weather recording intervals... More about our weather records

Advertising

Allschwil weather history for previous 24 hours

 ConditionsComfort  
Time TempWeatherWind HumidityBarometerVisibility
6:00 AM
Aug 23
56 °FOvercast.1 mph83%30.01 "Hg19 mi
5:00 AM54 °FOvercast.3 mph87%30.01 "Hg19 mi
4:00 AM53 °FOvercast.6 mph89%30.01 "Hg37 mi
3:00 AM51 °FOvercast.1 mph93%30.01 "Hg34 mi
2:00 AM49 °FCool.2 mph91%30.03 "Hg37 mi
1:00 AM51 °FCool.2 mph91%30.03 "Hg37 mi
12:00 AM53 °FPassing clouds.1 mph89%30.02 "Hg31 mi
11:00 PM
Aug 22
55 °FPassing clouds.2 mph83%30.02 "Hg31 mi
10:00 PM56 °FPassing clouds.1 mph84%30.01 "Hg37 mi
9:00 PM58 °FPassing clouds.3 mph81%29.99 "Hg37 mi
8:00 PM65 °FPassing clouds.6 mph56%29.97 "Hg37 mi
7:00 PM69 °FScattered clouds.6 mph49%29.96 "Hg37 mi
6:00 PM70 °FScattered clouds.7 mph44%29.96 "Hg37 mi
5:00 PM68 °FScattered clouds.7 mph48%29.96 "Hg37 mi
4:00 PM71 °FScattered clouds.10 mph44%29.96 "Hg37 mi
3:00 PM70 °FScattered clouds.8 mph41%29.98 "Hg37 mi
2:00 PM69 °FPartly sunny.8 mph41%29.98 "Hg37 mi
1:00 PM69 °FPartly sunny.7 mph43%29.99 "Hg37 mi
12:00 PM69 °FPartly sunny.2 mph43%30.00 "Hg31 mi
11:00 AM64 °FPartly sunny.3 mph55%30.02 "Hg28 mi
10:00 AM60 °FPartly sunny.3 mph72%30.03 "Hg25 mi
9:00 AM56 °FPartly sunny.3 mph86%30.03 "Hg25 mi
8:00 AM51 °FPartly sunny.5 mph95%30.04 "Hg22 mi
7:00 AM48 °FOvercast.1 mph95%30.04 "Hg19 mi
Weather by CustomWeather, © 2014

See weather overviewHow to use our weather pages